Tracking 17938 objects as of 21-February-2017
HD Live streaming from Space Station
objects crossing your sky now

SL-14 R/B

Track SL-14 R/B now!
10-day predictions
SL-14 R/B is classified as:


NORAD ID: 11267
Int'l Code: 1979-011B
Perigee: 598.0 km
Apogee: 619.5 km
Inclination: 82.5 °
Period: 96.7 minutes
Semi major axis: 6979 km
RCS: 4.4018 m2 (large)
Launch date: February 12, 1979
Source: Commonwealth of Independent States (former USSR) (CIS)
Launch site: PLESETSK MISSILE AND SPACE COMPLEX (PKMTR)

Note: This is a ROCKET BODY
Your satellite tracking list
Your tracking list is empty





NASA's NSSDC Master Catalog

Two Line Element Set (TLE):
1 11267U 79011B   17052.16589049  .00000112  00000-0  92884-5 0  9992
2 11267  82.5280 339.0170 0015399 254.3597 105.5922 14.88820061 58206
Source of the keplerian elements: AFSPC